Year,Month,Day,Hour,Minute,Value (Times are PST for temperature in C)
2012,06,27,00,00,12.10
2012,06,27,00,01,12.10
2012,06,27,00,02,12.20
2012,06,27,00,03,12.20
2012,06,27,00,04,12.20
2012,06,27,00,05,12.20
2012,06,27,00,06,12.20
2012,06,27,00,07,12.20
2012,06,27,00,08,12.20
2012,06,27,00,09,12.20
2012,06,27,00,10,12.20
2012,06,27,00,11,12.20
2012,06,27,00,12,12.20
2012,06,27,00,13,12.10
2012,06,27,00,14,12.10
2012,06,27,00,15,12.10
2012,06,27,00,16,12.10
2012,06,27,00,17,12.10
2012,06,27,00,18,12.10
2012,06,27,00,19,12.10
2012,06,27,00,20,12.00
2012,06,27,00,21,12.00
2012,06,27,00,22,12.00
2012,06,27,00,23,11.90
2012,06,27,00,24,11.90
2012,06,27,00,25,11.90
2012,06,27,00,26,11.90
2012,06,27,00,27,11.80
2012,06,27,00,28,11.80
2012,06,27,00,29,11.80
2012,06,27,00,30,11.80
2012,06,27,00,31,11.80
2012,06,27,00,32,11.70
2012,06,27,00,33,11.70
2012,06,27,00,34,11.70
2012,06,27,00,35,11.70
2012,06,27,00,36,11.70
2012,06,27,00,37,11.60
2012,06,27,00,38,11.60
2012,06,27,00,39,11.60
2012,06,27,00,40,11.50
2012,06,27,00,41,11.50
2012,06,27,00,42,11.40
2012,06,27,00,43,11.40
2012,06,27,00,44,11.30
2012,06,27,00,45,11.30
2012,06,27,00,46,11.30
2012,06,27,00,47,11.20
2012,06,27,00,48,11.20
2012,06,27,00,49,11.20
2012,06,27,00,50,11.10
2012,06,27,00,51,11.10
2012,06,27,00,52,11.00
2012,06,27,00,53,11.00
2012,06,27,00,54,10.90
2012,06,27,00,55,10.90
2012,06,27,00,56,10.90
2012,06,27,00,57,10.80
2012,06,27,00,58,10.80
2012,06,27,00,59,10.80
2012,06,27,01,00,10.70
2012,06,27,01,01,10.70
2012,06,27,01,02,10.60
2012,06,27,01,03,10.60
2012,06,27,01,04,10.60
2012,06,27,01,05,10.50
2012,06,27,01,06,10.50
2012,06,27,01,07,10.40
2012,06,27,01,08,10.40
2012,06,27,01,09,10.30
2012,06,27,01,10,10.30
2012,06,27,01,11,10.30
2012,06,27,01,12,10.30
2012,06,27,01,13,10.20
2012,06,27,01,14,10.20
2012,06,27,01,15,10.20
2012,06,27,01,16,10.20
2012,06,27,01,17,10.10
2012,06,27,01,18,10.10
2012,06,27,01,19,10.10
2012,06,27,01,20,10.10
2012,06,27,01,21,10.00
2012,06,27,01,22,10.00
2012,06,27,01,23,10.00
2012,06,27,01,24,9.90
2012,06,27,01,25,9.90
2012,06,27,01,26,9.90
2012,06,27,01,27,9.90
2012,06,27,01,28,9.90
2012,06,27,01,29,9.80
2012,06,27,01,30,9.80
2012,06,27,01,31,9.80
2012,06,27,01,32,9.80
2012,06,27,01,33,9.80
2012,06,27,01,34,9.80
2012,06,27,01,35,9.70
2012,06,27,01,36,9.70
2012,06,27,01,37,9.70
2012,06,27,01,38,9.70
2012,06,27,01,39,9.70
2012,06,27,01,40,9.70
2012,06,27,01,41,9.60
2012,06,27,01,42,9.60
2012,06,27,01,43,9.60
2012,06,27,01,44,9.60
2012,06,27,01,45,9.60
2012,06,27,01,46,9.60
2012,06,27,01,47,9.50
2012,06,27,01,48,9.50
2012,06,27,01,49,9.50
2012,06,27,01,50,9.40
2012,06,27,01,51,9.40
2012,06,27,01,52,9.40
2012,06,27,01,53,9.40
2012,06,27,01,54,9.40
2012,06,27,01,55,9.40
2012,06,27,01,56,9.30
2012,06,27,01,57,9.30
2012,06,27,01,58,9.30
2012,06,27,01,59,9.30
2012,06,27,02,00,9.30
2012,06,27,02,01,9.30
2012,06,27,02,02,9.30
2012,06,27,02,03,9.30
2012,06,27,02,04,9.30
2012,06,27,02,05,9.30
2012,06,27,02,06,9.30
2012,06,27,02,07,9.30
2012,06,27,02,08,9.30
2012,06,27,02,09,9.20
2012,06,27,02,10,9.20
2012,06,27,02,11,9.20
2012,06,27,02,12,9.20
2012,06,27,02,13,9.20
2012,06,27,02,14,9.20
2012,06,27,02,15,9.20
2012,06,27,02,16,9.20
2012,06,27,02,17,9.20
2012,06,27,02,18,9.20
2012,06,27,02,19,9.20
2012,06,27,02,20,9.20
2012,06,27,02,21,9.20
2012,06,27,02,22,9.20
2012,06,27,02,23,9.20
2012,06,27,02,24,9.20
2012,06,27,02,25,9.20
2012,06,27,02,26,9.20
2012,06,27,02,27,9.20
2012,06,27,02,28,9.20
2012,06,27,02,29,9.20
2012,06,27,02,30,9.20
2012,06,27,02,31,9.20
2012,06,27,02,32,9.20
2012,06,27,02,33,9.20
2012,06,27,02,34,9.20
2012,06,27,02,35,9.20
2012,06,27,02,36,9.20
2012,06,27,02,37,9.20
2012,06,27,02,38,9.20
2012,06,27,02,39,9.10
2012,06,27,02,40,9.10
2012,06,27,02,41,9.10
2012,06,27,02,42,9.10
2012,06,27,02,43,9.10
2012,06,27,02,44,9.10
2012,06,27,02,45,9.00
2012,06,27,02,46,9.00
2012,06,27,02,47,9.00
2012,06,27,02,48,9.00
2012,06,27,02,49,8.90
2012,06,27,02,50,8.90
2012,06,27,02,51,8.90
2012,06,27,02,52,8.90
2012,06,27,02,53,8.90
2012,06,27,02,54,8.90
2012,06,27,02,55,8.80
2012,06,27,02,56,8.80
2012,06,27,02,57,8.80
2012,06,27,02,58,8.80
2012,06,27,02,59,8.80
2012,06,27,03,00,8.80
2012,06,27,03,01,8.80
2012,06,27,03,02,8.80
2012,06,27,03,03,8.80
2012,06,27,03,04,8.70
2012,06,27,03,05,8.70
2012,06,27,03,06,8.70
2012,06,27,03,07,8.70
2012,06,27,03,08,8.70
2012,06,27,03,09,8.70
2012,06,27,03,10,8.70
2012,06,27,03,11,8.70
2012,06,27,03,12,8.70
2012,06,27,03,13,8.70
2012,06,27,03,14,8.70
2012,06,27,03,15,8.70
2012,06,27,03,16,8.70
2012,06,27,03,17,8.70
2012,06,27,03,18,8.70
2012,06,27,03,19,8.70
2012,06,27,03,20,8.70
2012,06,27,03,21,8.70
2012,06,27,03,22,8.60
2012,06,27,03,23,8.60
2012,06,27,03,24,8.60
2012,06,27,03,25,8.60
2012,06,27,03,26,8.60
2012,06,27,03,27,8.60
2012,06,27,03,28,8.60
2012,06,27,03,29,8.60
2012,06,27,03,30,8.50
2012,06,27,03,31,8.50
2012,06,27,03,32,8.50
2012,06,27,03,33,8.50
2012,06,27,03,34,8.50
2012,06,27,03,35,8.60
2012,06,27,03,36,8.60
2012,06,27,03,37,8.60
2012,06,27,03,38,8.60
2012,06,27,03,39,8.60
2012,06,27,03,40,8.60
2012,06,27,03,41,8.60
2012,06,27,03,42,8.60
2012,06,27,03,43,8.60
2012,06,27,03,44,8.60
2012,06,27,03,45,8.60
2012,06,27,03,46,8.60
2012,06,27,03,47,8.60
2012,06,27,03,48,8.70
2012,06,27,03,49,8.70
2012,06,27,03,50,8.70
2012,06,27,03,51,8.70
2012,06,27,03,52,8.70
2012,06,27,03,53,8.70
2012,06,27,03,54,8.70
2012,06,27,03,55,8.70
2012,06,27,03,56,8.70
2012,06,27,03,57,8.70
2012,06,27,03,58,8.70
2012,06,27,03,59,8.70
2012,06,27,04,00,8.70
2012,06,27,04,01,8.70
2012,06,27,04,02,8.70
2012,06,27,04,03,8.60
2012,06,27,04,04,8.60
2012,06,27,04,05,8.60
2012,06,27,04,06,8.60
2012,06,27,04,07,8.60
2012,06,27,04,08,8.60
2012,06,27,04,09,8.50
2012,06,27,04,10,8.50
2012,06,27,04,11,8.50
2012,06,27,04,12,8.50
2012,06,27,04,13,8.50
2012,06,27,04,14,8.40
2012,06,27,04,15,8.40
2012,06,27,04,16,8.40
2012,06,27,04,17,8.40
2012,06,27,04,18,8.40
2012,06,27,04,19,8.30
2012,06,27,04,20,8.30
2012,06,27,04,21,8.30
2012,06,27,04,22,8.30
2012,06,27,04,23,8.30
2012,06,27,04,24,8.30
2012,06,27,04,25,8.30
2012,06,27,04,26,8.20
2012,06,27,04,27,8.20
2012,06,27,04,28,8.20
2012,06,27,04,29,8.20
2012,06,27,04,30,8.20
2012,06,27,04,31,8.20
2012,06,27,04,32,8.20
2012,06,27,04,33,8.10
2012,06,27,04,34,8.10
2012,06,27,04,35,8.10
2012,06,27,04,36,8.10
2012,06,27,04,37,8.10
2012,06,27,04,38,8.10
2012,06,27,04,39,8.00
2012,06,27,04,40,8.00
2012,06,27,04,41,8.00
2012,06,27,04,42,7.90
2012,06,27,04,43,7.90
2012,06,27,04,44,7.90
2012,06,27,04,45,7.80
2012,06,27,04,46,7.80
2012,06,27,04,47,7.80
2012,06,27,04,48,7.80
2012,06,27,04,49,7.80
2012,06,27,04,50,7.80
2012,06,27,04,51,7.80
2012,06,27,04,52,7.80
2012,06,27,04,53,7.70
2012,06,27,04,54,7.70
2012,06,27,04,55,7.70
2012,06,27,04,56,7.70
2012,06,27,04,57,7.70
2012,06,27,04,58,7.70
2012,06,27,04,59,7.70
2012,06,27,05,00,7.70
2012,06,27,05,01,7.70
2012,06,27,05,02,7.70
2012,06,27,05,03,7.80
2012,06,27,05,04,7.80
2012,06,27,05,05,7.80
2012,06,27,05,06,7.70
2012,06,27,05,07,7.70
2012,06,27,05,08,7.70
2012,06,27,05,09,7.70
2012,06,27,05,10,7.70
2012,06,27,05,11,7.70
2012,06,27,05,12,7.70
2012,06,27,05,13,7.70
2012,06,27,05,14,7.70
2012,06,27,05,15,7.70
2012,06,27,05,16,7.70
2012,06,27,05,17,7.70
2012,06,27,05,18,7.70
2012,06,27,05,19,7.70
2012,06,27,05,20,7.70
2012,06,27,05,21,7.70
2012,06,27,05,22,7.70
2012,06,27,05,23,7.70
2012,06,27,05,24,7.70
2012,06,27,05,25,7.70
2012,06,27,05,26,7.70
2012,06,27,05,27,7.70
2012,06,27,05,28,7.60
2012,06,27,05,29,7.70
2012,06,27,05,30,7.60
2012,06,27,05,31,7.60
2012,06,27,05,32,7.60
2012,06,27,05,33,7.60
2012,06,27,05,34,7.60
2012,06,27,05,35,7.70
2012,06,27,05,36,7.70
2012,06,27,05,37,7.70
2012,06,27,05,38,7.70
2012,06,27,05,39,7.70
2012,06,27,05,40,7.70
2012,06,27,05,41,7.70
2012,06,27,05,42,7.70
2012,06,27,05,43,7.70
2012,06,27,05,44,7.70
2012,06,27,05,45,7.70
2012,06,27,05,46,7.70
2012,06,27,05,47,7.70
2012,06,27,05,48,7.70
2012,06,27,05,49,7.70
2012,06,27,05,50,7.70
2012,06,27,05,51,7.70
2012,06,27,05,52,7.80
2012,06,27,05,53,7.80
2012,06,27,05,54,7.90
2012,06,27,05,55,7.90
2012,06,27,05,56,7.90
2012,06,27,05,57,8.00
2012,06,27,05,58,8.00
2012,06,27,05,59,8.10
2012,06,27,06,00,8.10
2012,06,27,06,01,8.20
2012,06,27,06,02,8.20
2012,06,27,06,03,8.20
2012,06,27,06,04,8.30
2012,06,27,06,05,8.30
2012,06,27,06,06,8.40
2012,06,27,06,07,8.50
2012,06,27,06,08,8.50
2012,06,27,06,09,8.60
2012,06,27,06,10,8.70
2012,06,27,06,11,8.80
2012,06,27,06,12,8.80
2012,06,27,06,13,8.90
2012,06,27,06,14,8.90
2012,06,27,06,15,8.90
2012,06,27,06,16,9.00
2012,06,27,06,17,9.00
2012,06,27,06,18,9.10
2012,06,27,06,19,9.10
2012,06,27,06,20,9.10
2012,06,27,06,21,9.20
2012,06,27,06,22,9.20
2012,06,27,06,23,9.30
2012,06,27,06,24,9.30
2012,06,27,06,25,9.40
2012,06,27,06,26,9.40
2012,06,27,06,27,9.50
2012,06,27,06,28,9.50
2012,06,27,06,29,9.60
2012,06,27,06,30,9.70
2012,06,27,06,31,9.70
2012,06,27,06,32,9.80
2012,06,27,06,33,9.90
2012,06,27,06,34,9.90
2012,06,27,06,35,10.00
2012,06,27,06,36,10.10
2012,06,27,06,37,10.20
2012,06,27,06,38,10.20
2012,06,27,06,39,10.30
2012,06,27,06,40,10.40
2012,06,27,06,41,10.50
2012,06,27,06,42,10.60
2012,06,27,06,43,10.70
2012,06,27,06,44,10.80
2012,06,27,06,45,10.80
2012,06,27,06,46,10.90
2012,06,27,06,47,11.10
2012,06,27,06,48,11.10
2012,06,27,06,49,11.20
2012,06,27,06,50,11.20
2012,06,27,06,51,11.30
2012,06,27,06,52,11.30
2012,06,27,06,53,11.30
2012,06,27,06,54,11.30
2012,06,27,06,55,11.40
2012,06,27,06,56,11.40
2012,06,27,06,57,11.40
2012,06,27,06,58,11.40
2012,06,27,06,59,11.50
2012,06,27,07,00,11.60
2012,06,27,07,01,11.60
2012,06,27,07,02,11.60
2012,06,27,07,03,11.70
2012,06,27,07,04,11.70
2012,06,27,07,05,11.80
2012,06,27,07,06,11.80
2012,06,27,07,07,11.90
2012,06,27,07,08,12.00
2012,06,27,07,09,12.00
2012,06,27,07,10,12.10
2012,06,27,07,11,12.20
2012,06,27,07,12,12.30
2012,06,27,07,13,12.40
2012,06,27,07,14,12.40
2012,06,27,07,15,12.50
2012,06,27,07,16,12.50
2012,06,27,07,17,12.50
2012,06,27,07,18,12.50
2012,06,27,07,19,12.50
2012,06,27,07,20,12.60
2012,06,27,07,21,12.60
2012,06,27,07,22,12.60
2012,06,27,07,23,12.60
2012,06,27,07,24,12.60
2012,06,27,07,25,12.50
2012,06,27,07,26,12.50
2012,06,27,07,27,12.60
2012,06,27,07,28,12.60
2012,06,27,07,29,12.60
2012,06,27,07,30,12.60
2012,06,27,07,31,12.70
2012,06,27,07,32,12.70
2012,06,27,07,33,12.80
2012,06,27,07,34,12.80
2012,06,27,07,35,12.90
2012,06,27,07,36,13.00
2012,06,27,07,37,13.10
2012,06,27,07,38,13.20
2012,06,27,07,39,13.30
2012,06,27,07,40,13.40
2012,06,27,07,41,13.50
2012,06,27,07,42,13.60
2012,06,27,07,43,13.70
2012,06,27,07,44,13.70
2012,06,27,07,45,13.80
2012,06,27,07,46,13.80
2012,06,27,07,47,13.80
2012,06,27,07,48,13.90
2012,06,27,07,49,14.00
2012,06,27,07,50,14.10
2012,06,27,07,51,14.20
2012,06,27,07,52,14.30
2012,06,27,07,53,14.30
2012,06,27,07,54,14.40
2012,06,27,07,55,14.50
2012,06,27,07,56,14.50
2012,06,27,07,57,14.50
2012,06,27,07,58,14.50
2012,06,27,07,59,14.40
2012,06,27,08,00,14.40
2012,06,27,08,01,14.30
2012,06,27,08,02,14.20
2012,06,27,08,03,14.20
2012,06,27,08,04,14.20
2012,06,27,08,05,14.10
2012,06,27,08,06,14.10
2012,06,27,08,07,14.10
2012,06,27,08,08,14.10
2012,06,27,08,09,14.20
2012,06,27,08,10,14.20
2012,06,27,08,11,14.30
2012,06,27,08,12,14.30
2012,06,27,08,13,14.40
2012,06,27,08,14,14.40
2012,06,27,08,15,14.50
2012,06,27,08,16,14.50
2012,06,27,08,17,14.50
2012,06,27,08,18,14.60
2012,06,27,08,19,14.60
2012,06,27,08,20,14.60
2012,06,27,08,21,14.60
2012,06,27,08,22,14.70
2012,06,27,08,23,14.70
2012,06,27,08,24,14.80
2012,06,27,08,25,14.80
2012,06,27,08,26,14.80
2012,06,27,08,27,14.80
2012,06,27,08,28,14.90
2012,06,27,08,29,14.90
2012,06,27,08,30,15.00
2012,06,27,08,31,15.10
2012,06,27,08,32,15.20
2012,06,27,08,33,15.30
2012,06,27,08,34,15.40
2012,06,27,08,35,15.40
2012,06,27,08,36,15.50
2012,06,27,08,37,15.60
2012,06,27,08,38,15.60
2012,06,27,08,39,15.70
2012,06,27,08,40,15.70
2012,06,27,08,41,15.80
2012,06,27,08,42,15.80
2012,06,27,08,43,15.80
2012,06,27,08,44,15.80
2012,06,27,08,45,15.80
2012,06,27,08,46,15.90
2012,06,27,08,47,15.90
2012,06,27,08,48,16.00
2012,06,27,08,49,15.90
2012,06,27,08,50,15.90
2012,06,27,08,51,15.90
2012,06,27,08,52,16.00
2012,06,27,08,53,16.10
2012,06,27,08,54,16.20
2012,06,27,08,55,16.20
2012,06,27,08,56,16.20
2012,06,27,08,57,16.20
2012,06,27,08,58,16.30
2012,06,27,08,59,16.30
2012,06,27,09,00,16.30
2012,06,27,09,01,16.30
2012,06,27,09,02,16.30
2012,06,27,09,03,16.30
2012,06,27,09,04,16.30
2012,06,27,09,05,16.30
2012,06,27,09,06,16.30
2012,06,27,09,07,16.20
2012,06,27,09,08,16.00
2012,06,27,09,09,16.00
2012,06,27,09,10,15.90
2012,06,27,09,11,15.90
2012,06,27,09,12,15.90
2012,06,27,09,13,15.90
2012,06,27,09,14,15.80
2012,06,27,09,15,15.70
2012,06,27,09,16,15.60
2012,06,27,09,17,15.60
2012,06,27,09,18,15.60
2012,06,27,09,19,15.60
2012,06,27,09,20,15.60
2012,06,27,09,21,15.60
2012,06,27,09,22,15.60
2012,06,27,09,23,15.50
2012,06,27,09,24,15.50
2012,06,27,09,25,15.60
2012,06,27,09,26,15.60
2012,06,27,09,27,15.70
2012,06,27,09,28,15.70
2012,06,27,09,29,15.70
2012,06,27,09,30,15.70
2012,06,27,09,31,15.70
2012,06,27,09,32,15.70
2012,06,27,09,33,15.70
2012,06,27,09,34,15.70
2012,06,27,09,35,15.70
2012,06,27,09,36,15.70
2012,06,27,09,37,15.60
2012,06,27,09,38,15.50
2012,06,27,09,39,15.50
2012,06,27,09,40,15.40
2012,06,27,09,41,15.40
2012,06,27,09,42,15.50
2012,06,27,09,43,15.50
2012,06,27,09,44,15.60
2012,06,27,09,45,15.60
2012,06,27,09,46,15.60
2012,06,27,09,47,15.60
2012,06,27,09,48,15.60
2012,06,27,09,49,15.70
2012,06,27,09,50,15.70
2012,06,27,09,51,15.70
2012,06,27,09,52,15.80
2012,06,27,09,53,15.80
2012,06,27,09,54,15.70
2012,06,27,09,55,15.70
2012,06,27,09,56,15.60
2012,06,27,09,57,15.60
2012,06,27,09,58,15.70
2012,06,27,09,59,15.70
2012,06,27,10,00,15.80
2012,06,27,10,01,15.90
2012,06,27,10,02,15.90
2012,06,27,10,03,15.90
2012,06,27,10,04,15.90
2012,06,27,10,05,15.90
2012,06,27,10,06,15.90
2012,06,27,10,07,15.90
2012,06,27,10,08,15.80
2012,06,27,10,09,15.80
2012,06,27,10,10,15.70
2012,06,27,10,11,15.70
2012,06,27,10,12,15.70
2012,06,27,10,13,15.60
2012,06,27,10,14,15.60
2012,06,27,10,15,15.60
2012,06,27,10,16,15.60
2012,06,27,10,17,15.70
2012,06,27,10,18,15.80
2012,06,27,10,19,15.90
2012,06,27,10,20,15.90
2012,06,27,10,21,15.90
2012,06,27,10,22,15.90
2012,06,27,10,23,16.00
2012,06,27,10,24,16.00
2012,06,27,10,25,16.00
2012,06,27,10,26,15.90
2012,06,27,10,27,16.00
2012,06,27,10,28,16.00
2012,06,27,10,29,16.10
2012,06,27,10,30,16.00
2012,06,27,10,31,16.00
2012,06,27,10,32,15.90
2012,06,27,10,33,15.90
2012,06,27,10,34,15.90
2012,06,27,10,35,16.00
2012,06,27,10,36,16.10
2012,06,27,10,37,16.10
2012,06,27,10,38,16.10
2012,06,27,10,39,16.10
2012,06,27,10,40,16.20
2012,06,27,10,41,16.30
2012,06,27,10,42,16.30
2012,06,27,10,43,16.40
2012,06,27,10,44,16.50
2012,06,27,10,45,16.50
2012,06,27,10,46,16.50
2012,06,27,10,47,16.50
2012,06,27,10,48,16.50
2012,06,27,10,49,16.50
2012,06,27,10,50,16.60
2012,06,27,10,51,16.60
2012,06,27,10,52,16.70
2012,06,27,10,53,16.70
2012,06,27,10,54,16.70
2012,06,27,10,55,16.60
2012,06,27,10,56,16.60
2012,06,27,10,57,16.60
2012,06,27,10,58,16.60
2012,06,27,10,59,16.60
2012,06,27,11,00,16.60
2012,06,27,11,01,16.60
2012,06,27,11,02,16.60
2012,06,27,11,03,16.70
2012,06,27,11,04,16.70
2012,06,27,11,05,16.80
2012,06,27,11,06,16.80
2012,06,27,11,07,16.70
2012,06,27,11,08,16.70
2012,06,27,11,09,16.60
2012,06,27,11,10,16.50
2012,06,27,11,11,16.40
2012,06,27,11,12,16.40
2012,06,27,11,13,16.40
2012,06,27,11,14,16.50
2012,06,27,11,15,16.60
2012,06,27,11,16,16.60
2012,06,27,11,17,16.60
2012,06,27,11,18,16.60
2012,06,27,11,19,16.60
2012,06,27,11,20,16.60
2012,06,27,11,21,16.60
2012,06,27,11,22,16.60
2012,06,27,11,23,16.60
2012,06,27,11,24,16.70
2012,06,27,11,25,16.80
2012,06,27,11,26,16.80
2012,06,27,11,27,16.80
2012,06,27,11,28,16.70
2012,06,27,11,29,16.70
2012,06,27,11,30,16.60
2012,06,27,11,31,16.50
2012,06,27,11,32,16.50
2012,06,27,11,33,16.50
2012,06,27,11,34,16.50
2012,06,27,11,35,16.60
2012,06,27,11,36,16.60
2012,06,27,11,37,16.50
2012,06,27,11,38,16.40
2012,06,27,11,39,16.50
2012,06,27,11,40,16.60
2012,06,27,11,41,16.70
2012,06,27,11,42,16.70
2012,06,27,11,43,16.70
2012,06,27,11,44,16.70
2012,06,27,11,45,16.90
2012,06,27,11,46,16.90
2012,06,27,11,47,16.90
2012,06,27,11,48,16.90
2012,06,27,11,49,16.80
2012,06,27,11,50,16.80
2012,06,27,11,51,16.70
2012,06,27,11,52,16.60
2012,06,27,11,53,16.60
2012,06,27,11,54,16.60
2012,06,27,11,55,16.60
2012,06,27,11,56,16.60
2012,06,27,11,57,16.70
2012,06,27,11,58,16.70
2012,06,27,11,59,16.80
2012,06,27,12,00,17.00
2012,06,27,12,01,17.10
2012,06,27,12,02,17.10
2012,06,27,12,03,17.10
2012,06,27,12,04,17.20
2012,06,27,12,05,17.30
2012,06,27,12,06,17.30
2012,06,27,12,07,17.20
2012,06,27,12,08,17.20
2012,06,27,12,09,17.20
2012,06,27,12,10,17.20
2012,06,27,12,11,17.10
2012,06,27,12,12,17.10
2012,06,27,12,13,17.00
2012,06,27,12,14,16.90
2012,06,27,12,15,16.90
2012,06,27,12,16,16.90
2012,06,27,12,17,16.90
2012,06,27,12,18,16.90
2012,06,27,12,19,16.80
2012,06,27,12,20,16.70
2012,06,27,12,21,16.60
2012,06,27,12,22,16.60
2012,06,27,12,23,16.70
2012,06,27,12,24,16.70
2012,06,27,12,25,16.80
2012,06,27,12,26,16.80
2012,06,27,12,27,16.90
2012,06,27,12,28,16.90
2012,06,27,12,29,16.90
2012,06,27,12,30,16.90
2012,06,27,12,31,16.90
2012,06,27,12,32,16.90
2012,06,27,12,33,16.80
2012,06,27,12,34,16.70
2012,06,27,12,35,16.60
2012,06,27,12,36,16.60
2012,06,27,12,37,16.50
2012,06,27,12,38,16.50
2012,06,27,12,39,16.50
2012,06,27,12,40,16.50
2012,06,27,12,41,16.50
2012,06,27,12,42,16.50
2012,06,27,12,43,16.50
2012,06,27,12,44,16.50
2012,06,27,12,45,16.60
2012,06,27,12,46,16.70
2012,06,27,12,47,16.70
2012,06,27,12,48,16.70
2012,06,27,12,49,16.90
2012,06,27,12,50,17.00
2012,06,27,12,51,17.10
2012,06,27,12,52,17.30
2012,06,27,12,53,17.40
2012,06,27,12,54,17.50
2012,06,27,12,55,17.60
2012,06,27,12,56,17.60
2012,06,27,12,57,17.60
2012,06,27,12,58,17.60
2012,06,27,12,59,17.50
2012,06,27,13,00,17.50
2012,06,27,13,01,17.40
2012,06,27,13,02,17.20
2012,06,27,13,03,17.20
2012,06,27,13,04,17.20
2012,06,27,13,05,17.30
2012,06,27,13,06,17.40
2012,06,27,13,07,17.50
2012,06,27,13,08,17.60
2012,06,27,13,09,17.60
2012,06,27,13,10,17.60
2012,06,27,13,11,17.50
2012,06,27,13,12,17.50
2012,06,27,13,13,17.50
2012,06,27,13,14,17.50
2012,06,27,13,15,17.60
2012,06,27,13,16,17.70
2012,06,27,13,17,17.80
2012,06,27,13,18,17.80
2012,06,27,13,19,17.80
2012,06,27,13,20,17.80
2012,06,27,13,21,17.80
2012,06,27,13,22,17.80
2012,06,27,13,23,17.80
2012,06,27,13,24,17.90
2012,06,27,13,25,17.90
2012,06,27,13,26,18.00
2012,06,27,13,27,18.00
2012,06,27,13,28,18.10
2012,06,27,13,29,18.00
2012,06,27,13,30,17.90
2012,06,27,13,31,17.90
2012,06,27,13,32,17.90
2012,06,27,13,33,18.00
2012,06,27,13,34,18.00
2012,06,27,13,35,18.00
2012,06,27,13,36,17.90
2012,06,27,13,37,17.90
2012,06,27,13,38,17.90
2012,06,27,13,39,17.80
2012,06,27,13,40,17.70
2012,06,27,13,41,17.70
2012,06,27,13,42,17.70
2012,06,27,13,43,17.80
2012,06,27,13,44,17.80
2012,06,27,13,45,17.90
2012,06,27,13,46,17.90
2012,06,27,13,47,17.90
2012,06,27,13,48,17.90
2012,06,27,13,49,18.00
2012,06,27,13,50,18.10
2012,06,27,13,51,18.10
2012,06,27,13,52,18.20
2012,06,27,13,53,18.30
2012,06,27,13,54,18.40
2012,06,27,13,55,18.40
2012,06,27,13,56,18.30
2012,06,27,13,57,18.30
2012,06,27,13,58,18.30
2012,06,27,13,59,18.40
2012,06,27,14,00,18.50
2012,06,27,14,01,18.60
2012,06,27,14,02,18.60
2012,06,27,14,03,18.60
2012,06,27,14,04,18.50
2012,06,27,14,05,18.40
2012,06,27,14,06,18.40
2012,06,27,14,07,18.40
2012,06,27,14,08,18.30
2012,06,27,14,09,18.20
2012,06,27,14,10,18.10
2012,06,27,14,11,18.10
2012,06,27,14,12,18.20
2012,06,27,14,13,18.30
2012,06,27,14,14,18.40
2012,06,27,14,15,18.50
2012,06,27,14,16,18.60
2012,06,27,14,17,18.60
2012,06,27,14,18,18.60
2012,06,27,14,19,18.60
2012,06,27,14,20,18.50
2012,06,27,14,21,18.40
2012,06,27,14,22,18.40
2012,06,27,14,23,18.50
2012,06,27,14,24,18.50
2012,06,27,14,25,18.50
2012,06,27,14,26,18.40
2012,06,27,14,27,18.40
2012,06,27,14,28,18.40
2012,06,27,14,29,18.50
2012,06,27,14,30,18.60
2012,06,27,14,31,18.70
2012,06,27,14,32,18.80
2012,06,27,14,33,18.80
2012,06,27,14,34,18.70
2012,06,27,14,35,18.60
2012,06,27,14,36,18.50
2012,06,27,14,37,18.30
2012,06,27,14,38,18.30
2012,06,27,14,39,18.20
2012,06,27,14,40,18.10
2012,06,27,14,41,18.00
2012,06,27,14,42,18.00
2012,06,27,14,43,18.00
2012,06,27,14,44,18.00
2012,06,27,14,45,18.10
2012,06,27,14,46,18.20
2012,06,27,14,47,18.30
2012,06,27,14,48,18.40
2012,06,27,14,49,18.40
2012,06,27,14,50,18.50
2012,06,27,14,51,18.50
2012,06,27,14,52,18.60
2012,06,27,14,53,18.60
2012,06,27,14,54,18.60
2012,06,27,14,55,18.70
2012,06,27,14,56,18.70
2012,06,27,14,57,18.70
2012,06,27,14,58,18.80
2012,06,27,14,59,18.80
2012,06,27,15,00,18.80
2012,06,27,15,01,18.60
2012,06,27,15,02,18.60
2012,06,27,15,03,18.50
2012,06,27,15,04,18.50
2012,06,27,15,05,18.50
2012,06,27,15,06,18.40
2012,06,27,15,07,18.40
2012,06,27,15,08,18.40
2012,06,27,15,09,18.40
2012,06,27,15,10,18.30
2012,06,27,15,11,18.30
2012,06,27,15,12,18.30
2012,06,27,15,13,18.30
2012,06,27,15,14,18.30
2012,06,27,15,15,18.20
2012,06,27,15,16,18.30
2012,06,27,15,17,18.30
2012,06,27,15,18,18.30
2012,06,27,15,19,18.30
2012,06,27,15,20,18.40
2012,06,27,15,21,18.40
2012,06,27,15,22,18.40
2012,06,27,15,23,18.50
2012,06,27,15,24,18.70
2012,06,27,15,25,18.80
2012,06,27,15,26,18.90
2012,06,27,15,27,18.90
2012,06,27,15,28,18.90
2012,06,27,15,29,18.80
2012,06,27,15,30,18.70
2012,06,27,15,31,18.50
2012,06,27,15,32,18.30
2012,06,27,15,33,18.20
2012,06,27,15,34,18.10
2012,06,27,15,35,18.10
2012,06,27,15,36,18.10
2012,06,27,15,37,18.10
2012,06,27,15,38,18.20
2012,06,27,15,39,18.30
2012,06,27,15,40,18.30
2012,06,27,15,41,18.30
2012,06,27,15,42,18.30
2012,06,27,15,43,18.40
2012,06,27,15,44,18.40
2012,06,27,15,45,18.50
2012,06,27,15,46,18.60
2012,06,27,15,47,18.60
2012,06,27,15,48,18.60
2012,06,27,15,49,18.60
2012,06,27,15,50,18.60
2012,06,27,15,51,18.70
2012,06,27,15,52,18.70
2012,06,27,15,53,18.80
2012,06,27,15,54,18.90
2012,06,27,15,55,18.80
2012,06,27,15,56,18.70
2012,06,27,15,57,18.50
2012,06,27,15,58,18.40
2012,06,27,15,59,18.40
2012,06,27,16,00,18.30
2012,06,27,16,01,18.20
2012,06,27,16,02,18.10
2012,06,27,16,03,18.00
2012,06,27,16,04,18.00
2012,06,27,16,05,18.10
2012,06,27,16,06,18.20
2012,06,27,16,07,18.30
2012,06,27,16,08,18.40
2012,06,27,16,09,18.50
2012,06,27,16,10,18.60
2012,06,27,16,11,18.60
2012,06,27,16,12,18.60
2012,06,27,16,13,18.50
2012,06,27,16,14,18.50
2012,06,27,16,15,18.50
2012,06,27,16,16,18.50
2012,06,27,16,17,18.50
2012,06,27,16,18,18.50
2012,06,27,16,19,18.40
2012,06,27,16,20,18.50
2012,06,27,16,21,18.60
2012,06,27,16,22,18.70
2012,06,27,16,23,18.80
2012,06,27,16,24,18.80
2012,06,27,16,25,18.80
2012,06,27,16,26,18.90
2012,06,27,16,27,18.90
2012,06,27,16,28,18.90
2012,06,27,16,29,18.90
2012,06,27,16,30,19.00
2012,06,27,16,31,18.90
2012,06,27,16,32,18.80
2012,06,27,16,33,18.70
2012,06,27,16,34,18.70
2012,06,27,16,35,18.70
2012,06,27,16,36,18.70
2012,06,27,16,37,18.70
2012,06,27,16,38,18.60
2012,06,27,16,39,18.60
2012,06,27,16,40,18.60
2012,06,27,16,41,18.70
2012,06,27,16,42,18.70
2012,06,27,16,43,18.70
2012,06,27,16,44,18.70
2012,06,27,16,45,18.80
2012,06,27,16,46,18.90
2012,06,27,16,47,19.00
2012,06,27,16,48,19.10
2012,06,27,16,49,19.10
2012,06,27,16,50,19.20
2012,06,27,16,51,19.20
2012,06,27,16,52,19.20
2012,06,27,16,53,19.30
2012,06,27,16,54,19.30
2012,06,27,16,55,19.30
2012,06,27,16,56,19.30
2012,06,27,16,57,19.30
2012,06,27,16,58,19.30
2012,06,27,16,59,19.30
2012,06,27,17,00,19.40
2012,06,27,17,01,19.40
2012,06,27,17,02,19.30
2012,06,27,17,03,19.30
2012,06,27,17,04,19.30
2012,06,27,17,05,19.30
2012,06,27,17,06,19.30
2012,06,27,17,07,19.30
2012,06,27,17,08,19.20
2012,06,27,17,09,19.20
2012,06,27,17,10,19.20
2012,06,27,17,11,19.30
2012,06,27,17,12,19.30
2012,06,27,17,13,19.40
2012,06,27,17,14,19.50
2012,06,27,17,15,19.60
2012,06,27,17,16,19.60
2012,06,27,17,17,19.70
2012,06,27,17,18,19.70
2012,06,27,17,19,19.70
2012,06,27,17,20,19.70
2012,06,27,17,21,19.70
2012,06,27,17,22,19.60
2012,06,27,17,23,19.50
2012,06,27,17,24,19.50
2012,06,27,17,25,19.40
2012,06,27,17,26,19.40
2012,06,27,17,27,19.30
2012,06,27,17,28,19.30
2012,06,27,17,29,19.20
2012,06,27,17,30,19.20
2012,06,27,17,31,19.30
2012,06,27,17,32,19.30